Weather History for KBGM - February, 2013

Change the Weather History Date:

Saturday, February 2, 2013

  Actual Average Record
Temperature  
Mean Temperature 12 °F 23 °F  
Max Temperature 17 °F 30 °F 51 °F (1973)
Min Temperature 7 °F 16 °F -15 °F (1961)
Degree Days  
Heating Degree Days 53 42  
Month to date heating degree days 100 84  
Since 1 July heating degree days 3843 4156  
Cooling Degree Days 0 0  
Month to date cooling degree days 0 0  
Year to date cooling degree days 0 0  
Moisture  
Dew Point 6 °F    
Average Humidity 72    
Maximum Humidity 84    
Minimum Humidity 59    
Precipitation  
Precipitation 0.03 in 0.08 in 0.83 in (1973)
Month to date precipitation 0.04 0.16  
Year to date precipitation 2.29 2.61  
Snow  
Snow 0.40 in 0.70 in 6.80 in (1956)
Month to date snowfall 0.8 1.3  
Since 1 July snowfall 35.0 48.1  
Snow Depth 1.00 in    
Sea Level Pressure  
Sea Level Pressure 30.08 in    
Wind  
Wind Speed 8 mph (SW)    
Max Wind Speed 16 mph    
Max Gust Speed 21 mph    
Visibility 7 miles    
Events Snow    
T = Trace of Precipitation, MM = Missing Value Source: NWS Daily Summary

Daily Weather History Graph

Daily Weather History Graph

Search for Another Location

Airport or City:

Trip Planner

Search our weather history database for the weather conditions in past years. The results will help you decide how hot, cold, wet, or windy it might be!

Date:

Astronomy

Feb. 02, 2013 Rise Set
Actual Time 7:15 AM EST 5:20 PM EST
Civil Twilight 6:46 AM EST 5:49 PM EST
Nautical Twilight 6:12 AM EST 6:23 PM EST
Astronomical Twilight 5:40 AM EST 6:55 PM EST
Moon No Moon Rise 10:16 AM EST (2/2)
Length of Visible Light 11h 03m
Length of Day
10h 04m
Waning Gibbous, 60% of the Moon is Illuminated
Feb 2
Waning Gibbous
Feb 3
Last Quarter
Feb 10
New
Feb 17
First Quarter
Feb 25
Full

Hourly Weather History & Observations

Time (EST) Temp. Windchill Dew Point Humidity Pressure Visibility Wind Dir Wind Speed Gust Speed Precip Events Conditions
12:10 AM 15.8 °F 6.1 °F 8.6 °F 73% 30.10 in 4.0 mi West 6.9 mph - 0.00 in Snow Light Snow
12:38 AM 15.8 °F 2.1 °F 10.4 °F 79% 30.10 in 1.8 mi West 12.7 mph - 0.00 in Snow Light Snow
12:53 AM 14.0 °F 2.0 °F 10.0 °F 84% 30.18 in 1.8 mi West 9.2 mph - 0.00 in Snow Light Snow
1:30 AM 12.2 °F -2.5 °F 8.6 °F 85% 30.10 in 2.5 mi West 12.7 mph - 0.01 in Snow Light Snow
1:38 AM 12.2 °F -1.0 °F 8.6 °F 85% 30.10 in 5.0 mi WSW 10.4 mph - 0.01 in Snow Light Snow
1:53 AM 12.9 °F -1.6 °F 8.1 °F 81% 30.19 in 9.0 mi West 12.7 mph - 0.01 in Snow Light Snow
2:16 AM 12.2 °F -2.5 °F 6.8 °F 79% 30.10 in 10.0 mi West 12.7 mph - 0.00 in   Overcast
2:53 AM 10.9 °F -2.6 °F 3.9 °F 73% 30.19 in 10.0 mi West 10.4 mph - 0.00 in   Partly Cloudy
3:53 AM 10.0 °F -4.5 °F 3.0 °F 73% 30.19 in 10.0 mi West 11.5 mph - N/A   Clear
4:53 AM 9.0 °F -6.6 °F 1.9 °F 73% 30.19 in 10.0 mi West 12.7 mph - N/A   Clear
5:53 AM 9.0 °F -3.2 °F 1.9 °F 73% 30.19 in 10.0 mi SW 8.1 mph - N/A   Clear
6:53 AM 8.1 °F -7.0 °F 1.0 °F 73% 30.19 in 10.0 mi SW 11.5 mph - N/A   Scattered Clouds
7:53 AM 8.1 °F -4.3 °F 1.0 °F 73% 30.19 in 10.0 mi SW 8.1 mph - N/A   Clear
8:53 AM 9.0 °F -6.6 °F 1.9 °F 73% 30.19 in 10.0 mi SW 12.7 mph 18.4 mph N/A   Overcast
9:53 AM 10.0 °F -5.2 °F 1.9 °F 70% 30.17 in 7.0 mi SW 12.7 mph 18.4 mph 0.00 in   Overcast
10:53 AM 12.0 °F -2.0 °F 3.9 °F 70% 30.14 in 10.0 mi SW 11.5 mph - 0.00 in   Overcast
11:17 AM 12.2 °F -1.0 °F 3.2 °F 67% 30.04 in 10.0 mi SW 10.4 mph - N/A   Overcast
11:53 AM 12.0 °F -2.0 °F 3.0 °F 67% 30.12 in 4.0 mi SW 11.5 mph 17.3 mph 0.00 in Snow Light Snow
12:03 PM 12.2 °F -1.8 °F 3.2 °F 67% 30.02 in 2.5 mi SW 11.5 mph - 0.00 in Snow Light Snow
12:29 PM 12.2 °F -2.5 °F 5.0 °F 73% 30.01 in 1.2 mi SW 12.7 mph - 0.00 in Snow Light Snow
12:53 PM 12.9 °F 2.6 °F 7.0 °F 77% 30.09 in 1.0 mi SW 6.9 mph - 0.00 in Snow Light Snow
1:34 PM 14.0 °F 2.0 °F 6.8 °F 73% 29.97 in 2.5 mi SW 9.2 mph - 0.01 in Snow Light Snow
1:53 PM 14.0 °F 2.9 °F 6.1 °F 71% 30.05 in 8.0 mi SSW 8.1 mph - 0.01 in Snow Light Snow
2:46 PM 15.8 °F 4.2 °F 3.2 °F 58% 29.94 in 10.0 mi SW 9.2 mph - 0.00 in   Overcast
2:53 PM 15.8 °F 4.2 °F 5.0 °F 62% 29.94 in 10.0 mi SW 9.2 mph - N/A   Overcast
3:53 PM 16.0 °F 4.4 °F 3.9 °F 59% 30.03 in 10.0 mi WSW 9.2 mph - N/A   Overcast
4:53 PM 16.0 °F 7.4 °F 5.0 °F 62% 30.03 in 10.0 mi SSW 5.8 mph - N/A   Overcast
5:53 PM 15.1 °F 7.7 °F 6.1 °F 68% 30.03 in 10.0 mi South 4.6 mph - N/A   Overcast
6:53 PM 15.1 °F 7.7 °F 8.1 °F 74% 30.03 in 5.0 mi SW 4.6 mph - 0.00 in Snow Light Snow
7:53 PM 14.0 °F 8.2 °F 9.0 °F 80% 30.04 in 5.0 mi SSW 3.5 mph - 0.00 in Snow Light Snow
8:28 PM 14.0 °F 5.1 °F 10.4 °F 86% 29.93 in 3.0 mi SSW 5.8 mph - 0.00 in Snow Light Snow
8:53 PM 14.0 °F 6.5 °F 9.0 °F 80% 30.03 in 3.0 mi South 4.6 mph - 0.00 in Snow Light Snow
9:10 PM 14.0 °F 8.2 °F 8.6 °F 79% 29.93 in 8.0 mi South 3.5 mph - 0.01 in Snow Light Snow
9:53 PM 14.0 °F - 9.0 °F 80% 30.02 in 10.0 mi Calm Calm - 0.01 in   Overcast
10:53 PM 15.1 °F 9.4 °F 9.0 °F 77% 30.00 in 10.0 mi South 3.5 mph - N/A   Overcast
11:53 PM 15.1 °F 9.4 °F 9.0 °F 77% 29.99 in 7.0 mi South 3.5 mph - 0.00 in Snow Light Snow